Regional Weather Roundup
Issued by NWS

Home | Current Version | Previous Version | Text Only | Print | Product List | Glossary Off
Versions: 1 2 3 4 5 6 7 8 9 10 11 12 13 14 15 16 17 18 19 20 21 22 23 24 25 26 27 28 29 30 31 32 33 34 35 36 37 38 39 40 41 42 43 44 45 46 47 48 49 50

000
ASUS45 KBOU 282310
RWRCO

WEATHER ROUNDUP FOR COLORADO
NATIONAL WEATHER SERVICE DENVER/BOULDER CO
500 PM MDT TUE JUL 28 2015

NOTE: "FAIR" INDICATES FEW OR NO CLOUDS BELOW 12000 FEET WITH NO
SIGNIFICANT WEATHER AND/OR OBSTRUCTIONS TO VISIBILITY.

COZ001>005-013-030-031-290000-
...NORTHWEST COLORADO...

CITY           SKY/WX    TMP DP  RH WIND       PRES   REMARKS
CRAIG          SUNNY     82  30  15 W12       30.23F
HAYDEN         SUNNY     77  28  16 NW13      30.25F
MEEKER         SUNNY     80  24  12 VRB7G23   30.23F
MOUNT WERNER   NOT AVBL
STEAMBOAT SPGS SUNNY     76  31  19 W10G21    30.28S
WALDEN         SUNNY     70  23  17 W18G25    30.36S
$$

COZ006>008-011-290000-
...WEST CENTRAL VALLEYS...

CITY           SKY/WX    TMP DP  RH WIND       PRES   REMARKS
GRAND JUNCTION SUNNY     88  24  10 NW7G22    30.08F
MONTROSE       SUNNY     87  33  14 N9        30.15F
EAGLE          MOSUNNY   82  28  14 W16G24    30.22S
RIFLE            N/A     89  27  10 W10G18    30.12F
DELTA          SUNNY     92  29  10 SW9       30.09F
NUCLA          SUNNY     88  25  10 NW9       30.18F
$$

COZ017>023-064>068-290000-
...SOUTHWEST COLORADO...

CITY           SKY/WX    TMP DP  RH WIND       PRES   REMARKS
DURANGO        SUNNY     85  32  15 VRB6G20   30.18F
CORTEZ         SUNNY     89  22   8 NW6G18    30.14F
PAGOSA SPRINGS MOSUNNY   83  24  11 NW9G17    30.27F
TELLURIDE      MOSUNNY   74  31  20 W8G24     30.42S
WOLF CREEK PAS NOT AVBL
$$

COZ009-010-012-014-032>034-037-058>063-290000-
...CENTRAL COLORADO...

CITY           SKY/WX    TMP DP  RH WIND       PRES   REMARKS
ASPEN          SUNNY     79  31  17 VRB7      30.29F
BUENA VISTA    SUNNY     83  22  11 W17G23    30.26S
COPPER MTN     SUNNY     64  21  19 W18G25    30.64S
BERTHOUD PASS  FAIR      54  43  66 MISG      30.69S
COTTONWOOD PAS MOSUNNY   73  14  10 N6        30.43S
GUNNISON       MOSUNNY   81  30  16 SW6G21    30.30S
KREMMLING      SUNNY     79  27  14 N16       30.28S
LEADVILLE      SUNNY     70  24  17 NW14G22   30.44R
MONARCH PASS   PTSUNNY   64  27  24 W21G30    30.73R
SALIDA         MOSUNNY   85  25  11 W9        30.29F
SUNLIGHT       SUNNY     68  32  26 CALM      30.57S
WILKERSON PASS MOSUNNY   66  19  16 SW5       30.59R
$$

COZ069>075-290000-
...SAN LUIS VALLEY/SANGRE DE CRISTO MOUNTAINS...

CITY           SKY/WX    TMP DP  RH WIND       PRES   REMARKS
ALAMOSA        PTSUNNY   84  35  17 SW10G17   30.22F
LA VETA PASS   CLOUDY    63  43  48 MISG      30.49S
SAGUACHE       MOSUNNY   81  36  19 CALM      30.27F
$$

COZ035-036-038>040-290000-
...NORTHERN COLORADO FRONT RANGE...

CITY           SKY/WX    TMP DP  RH WIND       PRES   REMARKS
DENVER INTL AP MOSUNNY   85  39  19 SE22G31   30.13S
DMNS CITY PARK   N/A     84  42  23 E15G28    30.11R
AURORA         MOSUNNY   82  44  26 E18G24    30.14S
FRONT RANGE AP MOSUNNY   84  37  18 E16       30.15
ERIE MUNI ARPT SUNNY     87  36  16 E13G20    30.11F
BOULDER MUN AP SUNNY     86  41  20 E6        30.13S
CENTENNIAL     MOSUNNY   83  40  21 SE20G26   30.14S
BROOMFIELD     MOSUNNY   86  41  20 E17       30.15S
FORT COLLINS   SUNNY     86  43  22 SE6G16    30.10F
LONGMONT       SUNNY     89  39  17 E8G17     30.13S
$$

COZ041-046-047-076>085-087-088-290000-
...PIKES PEAK/PALMER DIVIDE AND SOUTHERN FOOTHILLS...

CITY           SKY/WX    TMP DP  RH WIND       PRES   REMARKS
COLO. SPRINGS  MOSUNNY   84  35  17 S15G25    30.19R
A. F. ACADEMY  MOSUNNY   82  34  17 S18G28    30.18S
ELLICOTT       SUNNY    N/A N/A N/A SE16G24   30.18S
FALCON         SUNNY     80  37  21 SE14G24   30.24S
FORT CARSON    SUNNY     85  40  20 SE16      30.15R
LIMON          SUNNY     80  42  25 E12       30.17S
MONUMENT HILL  MOSUNNY   77  39  25 SE15G24   30.24S
TRINIDAD       CLOUDY    77  48  35 S23G36    30.17R
$$

COZ042>045-048>051-090-091-290000-
...NORTHEAST COLORADO...

CITY           SKY/WX    TMP DP  RH WIND       PRES   REMARKS
GREELEY ARPT   SUNNY     84  45  24 E15       30.13R
AKRON          SUNNY     82  34  17 E8        30.14S
BURLINGTON     SUNNY     82  42  24 NE14      30.12S
WRAY           SUNNY     85  40  19 NE12      30.10R
STERLING       NOT AVBL
HOLYOKE        SUNNY     88  32  13 N13       30.10S
FORT MORGAN    SUNNY     83  34  17 E15G21    30.14R
$$

COZ086-089-092>099-290000-
...SOUTHEAST COLORADO...

CITY           SKY/WX    TMP DP  RH WIND       PRES   REMARKS
PUEBLO         SUNNY     92  36  14 SE21      30.06S
LA JUNTA       MOSUNNY   90  41  18 E16       30.06S
LAMAR          MOSUNNY   88  44  21 E16       30.03S
SPRINGFIELD      N/A     82  47  29 E16       30.09R
$$


USA.gov is the U.S. government's official web portal to all federal, state and local government web resources and services.